NOAA 16 DEB, 42372

Orbit data source: Space-Track

NOAA 16 DEB, 42372 is space debris in SSO originally from a launch on Thu, 21 Sep 2000 UTC launched from the Air Force Western Test Range (AFWTR). Debris objects in space refer to the collection of defunct objects orbiting the Earth. Examples of debris include non-operational satellites, rocket bodies, and fragments generated from explosions, collisions, or faulty payload assembly.

Loading next visibility...
Identifier
42372, 2000-055RQ
Orbit
SSO
Country
Flag of USUS
Related business
Manufacturer
Unknown
Mission
Spacecraft
Bus & Motor
Unknown
Mass
Unknown
Launch date (UTC)
2000-09-21 (25 years ago)
Launch vehicle
Unknown
Launch site
Air Force Western Test Range (AFWTR)
Object type
Payload
Rocket body
Debris
Shape & HBR
Unknown shape, 0.1 m
Radar Cross Section
Small (<0.1 m²)

Expand to show TLE details & history
Last TLE update: 20 hours ago

TLE from 20 hours ago
0 NOAA 16 DEB
1 42372U 00055RQ  25343.15781689  .00006958  00000-0  25835-2 0  9993
2 42372  98.8635  97.4096 0011876 172.4564 187.6799 14.32436118500157
Epoch: 2025-12-09T03:47Z
TLE epoch observation values (Epoch: 2025-12-09T03:47:15.379Z)
Latitude
-0.00008°
Longitude
-37.55099°
Altitude
794.957 km
Speed
7.452 km/s
True Right ascension
06h 29m 38s
True Declination
0° 00' 00"
Sunlit
Object was in full shadow at epoch
Visualization orbit readout
Latitude
Unknown
Longitude
Unknown
Altitude
Unknown
Speed
Unknown
Apparent Right ascension
Unknown
Apparent Declination
Unknown
Sunlit
N/A
Visualization observer readout
Local Sidereal Time
21:34:26
Azimuth
Unknown
Elevation
Unknown
Doppler factor
Unknown
Orbital elements
Apogee altitude
789.251 km
Perigee altitude
772.247 km
Semi-major axis
7,158.886 km
Eccentricity
0.00119
Inclination
98.8635°
RAAN
97.4096°
Arg. of periapsis
172.4564°
True anomaly
187.66174°
Mean anomaly
187.6799°
Eccentric anomaly
187.67082°
Mean motion
3.58323 °/min
Orbital period
100.47 mins
BSTAR
0.0025835
Loading maneuver chart data...
Computing Atmospheric mass density...
Loading historical data...
Loading historical data...
Loading historical data...
Loading historical data...
Loading historical data...
Loading historical data...
Loading historical data...

Documentation

Showing up to 5 results
|